Location: Unspecified
(37.7830°S, 0.0000°E)
Time: 15:27:15
(UTC+00:00)

Envisat - Visible Passes

Search period start: 24 May 2019 00:00
Search period end: 03 June 2019 00:00
Orbit: 764 x 766 km, 98.2° (Epoch: 24 May)

Date Brightness Start Highest point End Pass type
(mag) Time Alt. Az. Time Alt. Az. Time Alt. Az.
24 May 5.2 05:30:07 10° ENE 05:34:08 24° ESE 05:38:12 10° SSE visible
24 May 4.4 19:26:22 29° NNW 19:26:22 29° NNW 19:28:48 10° NNW visible
25 May 6.0 04:56:37 10° ESE 04:57:52 11° ESE 04:59:07 10° SE visible
25 May 3.1 06:30:59 10° NNE 06:36:05 87° WNW 06:41:16 10° SSW visible
25 May 4.3 18:49:11 25° NNE 18:49:11 25° NNE 18:51:34 10° NNE visible
25 May 5.9 20:29:23 11° WNW 20:29:23 11° WNW 20:29:39 10° WNW visible
26 May 4.3 05:54:42 10° NE 05:59:27 41° ESE 06:04:17 10° S visible
26 May 4.9 18:12:00 13° ENE 18:12:00 13° ENE 18:13:01 10° NE visible
26 May 5.0 19:52:12 22° NW 19:52:12 22° NW 19:54:05 10° NNW visible
27 May 5.5 05:19:30 10° ENE 05:23:02 19° ESE 05:26:36 10° SSE visible
27 May 4.3 19:15:01 30° N 19:15:01 30° N 19:17:32 10° N visible
28 May 3.3 06:19:47 10° NNE 06:24:52 74° ESE 06:30:02 10° S visible
28 May 4.5 18:37:50 21° NE 18:37:50 21° NE 18:39:59 10° NNE visible
28 May 5.6 20:18:02 14° WNW 20:18:02 14° WNW 20:18:54 10° NW visible
29 May 4.7 05:43:47 10° NE 05:48:18 33° ESE 05:52:52 10° S visible
29 May 5.1 18:00:39 10° ENE 18:00:39 10° ENE 18:00:40 10° ENE visible
29 May 4.7 19:40:51 26° NNW 19:40:51 26° NNW 19:43:00 10° NNW visible
30 May 5.7 05:09:03 10° E 05:11:56 15° ESE 05:14:50 10° SSE visible
30 May 4.2 19:03:40 28° NNE 19:03:40 28° NNE 19:06:11 10° N visible
31 May 3.7 06:08:41 10° NNE 06:13:40 58° ESE 06:18:44 10° S visible
31 May 4.6 18:26:27 18° NE 18:26:27 18° NE 18:28:17 10° NNE visible
31 May 5.3 20:06:40 18° NW 20:06:40 18° NW 20:08:02 10° NW visible
01 Jun 5.1 05:32:59 10° ENE 05:37:10 26° ESE 05:41:23 10° SSE visible
01 Jun 4.5 19:29:28 29° NNW 19:29:28 29° NNW 19:31:51 10° NNW visible
02 Jun 5.8 04:58:59 10° E 05:00:51 12° ESE 05:02:45 10° SE visible
02 Jun 3.0 06:34:02 10° N 06:39:09 80° WNW 06:44:20 10° SSW visible
02 Jun 4.3 18:52:16 26° NNE 18:52:16 26° NNE 18:54:44 10° NNE visible
02 Jun 6.0 20:32:28 10° WNW 20:32:28 10° WNW 20:32:30 10° WNW visible
